When you browse on this site, cookies collect data to enhance your experience and personalize the content and advertising you see.
Visit our Privacy Policy to learn more. By continuing to use the site, you agree to this use of cookies and data.
  • In Österreich
  • Länderverzeichnis
  • Für 7 Tage
  • Wassertemperatur
  • Wetterkarte
  • News
  • Widgets
  • user-avatar
    Anmelden

    Stündliche Wetter Kos

    Heute, 25 Januar, Samstag

    Zeit Temperatur Niederschläge Wind Luftdruck Luftfeuchtigkeit
    00:00 +8°C° 0 mm 6 m/S 772 mmHg 54%
    01:00 +8°C° 0 mm 5 m/S 772 mmHg 55%
    02:00 +8°C° 0 mm 5 m/S 772 mmHg 55%
    03:00 +8°C° 0 mm 5 m/S 772 mmHg 56%
    04:00 +8°C° 0 mm 5 m/S 772 mmHg 57%
    05:00 +8°C° 0 mm 5 m/S 772 mmHg 58%
    06:00 +8°C° 0 mm 4 m/S 772 mmHg 57%
    07:00 +8°C° 0 mm 4 m/S 772 mmHg 57%
    08:00 +9°C° 0 mm 2 m/S 772 mmHg 54%
    09:00 +10°C° 0 mm 2 m/S 773 mmHg 53%
    10:00 +13°C° 0 mm 1 m/S 773 mmHg 52%
    11:00 +14°C° 0 mm 1 m/S 774 mmHg 52%
    12:00 +14°C° 0 mm 1 m/S 773 mmHg 51%
    13:00 +15°C° 0 mm 1 m/S 773 mmHg 50%
    14:00 +15°C° 0 mm 1 m/S 772 mmHg 49%
    15:00 +15°C° 0 mm 1 m/S 772 mmHg 52%
    16:00 +14°C° 0 mm 1 m/S 772 mmHg 54%
    17:00 +14°C° 0 mm 1 m/S 772 mmHg 57%
    18:00 +13°C° 0 mm 1 m/S 772 mmHg 58%
    19:00 +13°C° 0 mm 2 m/S 773 mmHg 60%
    20:00 +13°C° 0 mm 2 m/S 773 mmHg 62%
    21:00 +13°C° 0 mm 2 m/S 773 mmHg 61%
    22:00 +13°C° 0 mm 2 m/S 773 mmHg 60%
    23:00 +13°C° 0 mm 2 m/S 773 mmHg 59%

    Morgen, 26 Januar, Sonntag

    Zeit Temperatur Niederschläge Wind Luftdruck Luftfeuchtigkeit
    00:00 +13°C° 0 mm 2 m/S 773 mmHg 60%
    01:00 +13°C° 0 mm 2 m/S 772 mmHg 60%
    02:00 +12°C° 0 mm 2 m/S 772 mmHg 61%
    03:00 +12°C° 0 mm 2 m/S 772 mmHg 62%
    04:00 +12°C° 0 mm 2 m/S 772 mmHg 64%
    05:00 +11°C° 0 mm 3 m/S 772 mmHg 65%
    06:00 +12°C° 0 mm 3 m/S 772 mmHg 65%
    07:00 +12°C° 0 mm 3 m/S 772 mmHg 66%
    08:00 +12°C° 0 mm 3 m/S 772 mmHg 66%
    09:00 +13°C° 0 mm 4 m/S 772 mmHg 66%
    10:00 +14°C° 0 mm 4 m/S 772 mmHg 65%
    11:00 +15°C° 0 mm 4 m/S 772 mmHg 64%
    12:00 +15°C° 0 mm 4 m/S 771 mmHg 63%
    13:00 +16°C° 0 mm 3 m/S 771 mmHg 63%
    14:00 +17°C° 0 mm 3 m/S 770 mmHg 63%
    15:00 +16°C° 0 mm 2 m/S 770 mmHg 67%
    16:00 +16°C° 0 mm 2 m/S 770 mmHg 71%
    17:00 +15°C° 0 mm 2 m/S 770 mmHg 75%
    18:00 +15°C° 0 mm 2 m/S 770 mmHg 77%
    19:00 +15°C° 0 mm 2 m/S 770 mmHg 78%
    20:00 +14°C° 0 mm 2 m/S 770 mmHg 80%
    21:00 +14°C° 0 mm 2 m/S 770 mmHg 80%
    22:00 +14°C° 0 mm 2 m/S 770 mmHg 80%
    23:00 +14°C° 0 mm 2 m/S 770 mmHg 79%

    übermorgen, 27 Januar, Montag

    Zeit Temperatur Niederschläge Wind Luftdruck Luftfeuchtigkeit
    00:00 +14°C° 0 mm 3 m/S 770 mmHg 79%
    01:00 +14°C° 0 mm 3 m/S 770 mmHg 78%
    02:00 +14°C° 0 mm 3 m/S 769 mmHg 78%
    03:00 +14°C° 0 mm 4 m/S 769 mmHg 80%
    04:00 +14°C° 0 mm 4 m/S 769 mmHg 82%
    05:00 +14°C° 0 mm 5 m/S 768 mmHg 84%
    06:00 +14°C° 0 mm 6 m/S 768 mmHg 85%
    07:00 +14°C° 0 mm 6 m/S 768 mmHg 85%
    08:00 +15°C° 0 mm 7 m/S 768 mmHg 85%
    09:00 +15°C° 0 mm 7 m/S 768 mmHg 82%
    10:00 +16°C° 0 mm 8 m/S 768 mmHg 80%
    11:00 +16°C° 0 mm 9 m/S 768 mmHg 77%
    12:00 +16°C° 0 mm 9 m/S 767 mmHg 77%
    13:00 +16°C° 0 mm 9 m/S 767 mmHg 77%
    14:00 +16°C° 0 mm 10 m/S 766 mmHg 77%
    15:00 +16°C° 0 mm 9 m/S 766 mmHg 78%
    16:00 +16°C° 0 mm 9 m/S 766 mmHg 78%
    17:00 +15°C° 0 mm 9 m/S 765 mmHg 79%
    18:00 +15°C° 0 mm 9 m/S 765 mmHg 80%
    19:00 +15°C° 0 mm 9 m/S 765 mmHg 81%
    20:00 +13°C° 0 mm 10 m/S 765 mmHg 82%
    21:00 +14°C° 0.2 mm 10 m/S 765 mmHg 81%
    22:00 +14°C° 0.2 mm 10 m/S 765 mmHg 80%
    23:00 +14°C° 0.2 mm 10 m/S 765 mmHg 79%

    28 Januar, Dienstag

    Zeit Temperatur Niederschläge Wind Luftdruck Luftfeuchtigkeit
    00:00 +14°C° 0.5 mm 10 m/S 764 mmHg 80%
    01:00 +14°C° 0.5 mm 10 m/S 764 mmHg 80%
    02:00 +13°C° 0.5 mm 10 m/S 763 mmHg 80%
    03:00 +15°C° 1.1 mm 9 m/S 763 mmHg 80%
    04:00 +15°C° 1.1 mm 9 m/S 763 mmHg 79%
    05:00 +15°C° 1.1 mm 8 m/S 762 mmHg 79%
    06:00 +15°C° 0.8 mm 8 m/S 762 mmHg 78%
    07:00 +15°C° 0.8 mm 8 m/S 763 mmHg 78%
    08:00 +15°C° 0.8 mm 7 m/S 763 mmHg 78%
    09:00 +15°C° 0.6 mm 7 m/S 763 mmHg 78%
    10:00 +15°C° 0.6 mm 7 m/S 763 mmHg 78%
    11:00 +15°C° 0.6 mm 7 m/S 763 mmHg 78%
    12:00 +15°C° 0.1 mm 7 m/S 763 mmHg 76%
    13:00 +15°C° 0.1 mm 8 m/S 763 mmHg 74%
    14:00 +15°C° 0.1 mm 8 m/S 762 mmHg 73%
    15:00 +15°C° 0 mm 8 m/S 763 mmHg 73%
    16:00 +15°C° 0 mm 7 m/S 763 mmHg 73%
    17:00 +14°C° 0 mm 7 m/S 763 mmHg 73%
    18:00 +14°C° 0 mm 6 m/S 763 mmHg 73%
    19:00 +14°C° 0 mm 6 m/S 764 mmHg 73%
    20:00 +14°C° 0 mm 5 m/S 764 mmHg 73%
    21:00 +14°C° 0 mm 5 m/S 764 mmHg 71%
    22:00 +14°C° 0 mm 4 m/S 764 mmHg 69%
    23:00 +14°C° 0 mm 4 m/S 764 mmHg 67%

    29 Januar, Mittwoch

    Zeit Temperatur Niederschläge Wind Luftdruck Luftfeuchtigkeit
    00:00 +14°C° 0 mm 4 m/S 764 mmHg 68%
    01:00 +14°C° 0 mm 4 m/S 764 mmHg 69%
    02:00 +14°C° 0 mm 4 m/S 764 mmHg 70%
    03:00 +14°C° 0 mm 4 m/S 764 mmHg 72%
    04:00 +14°C° 0 mm 4 m/S 764 mmHg 73%
    05:00 +14°C° 0 mm 4 m/S 764 mmHg 74%
    06:00 +14°C° 0 mm 4 m/S 764 mmHg 74%
    07:00 +15°C° 0 mm 5 m/S 764 mmHg 73%
    08:00 +15°C° 0 mm 5 m/S 764 mmHg 72%
    09:00 +15°C° 0 mm 6 m/S 764 mmHg 73%
    10:00 +15°C° 0 mm 7 m/S 764 mmHg 73%
    11:00 +16°C° 0 mm 7 m/S 764 mmHg 74%
    12:00 +16°C° 0.1 mm 8 m/S 764 mmHg 75%
    13:00 +16°C° 0.1 mm 9 m/S 764 mmHg 76%
    14:00 +16°C° 0.1 mm 9 m/S 763 mmHg 77%
    15:00 +15°C° 0.1 mm 9 m/S 763 mmHg 78%
    16:00 +15°C° 0.1 mm 9 m/S 763 mmHg 79%
    17:00 +15°C° 0.1 mm 9 m/S 763 mmHg 80%
    18:00 +15°C° 0.2 mm 8 m/S 763 mmHg 80%
    19:00 +15°C° 0.2 mm 7 m/S 763 mmHg 80%
    20:00 +15°C° 0.2 mm 7 m/S 763 mmHg 80%
    21:00 +15°C° 0.2 mm 7 m/S 763 mmHg 80%
    22:00 +15°C° 0.2 mm 8 m/S 763 mmHg 80%
    23:00 +15°C° 0.2 mm 8 m/S 763 mmHg 80%

    30 Januar, Donnerstag

    Zeit Temperatur Niederschläge Wind Luftdruck Luftfeuchtigkeit
    00:00 +15°C° 0.2 mm 9 m/S 763 mmHg 79%
    01:00 +15°C° 0.2 mm 9 m/S 763 mmHg 78%
    02:00 +16°C° 0.2 mm 10 m/S 762 mmHg 76%
    03:00 +16°C° 0.3 mm 10 m/S 762 mmHg 77%
    04:00 +16°C° 0.3 mm 10 m/S 762 mmHg 77%
    05:00 +14°C° 0.3 mm 10 m/S 761 mmHg 77%
    06:00 +14°C° 0.5 mm 10 m/S 761 mmHg 78%
    07:00 +14°C° 0.5 mm 10 m/S 761 mmHg 78%
    08:00 +14°C° 0.5 mm 10 m/S 761 mmHg 79%
    09:00 +14°C° 0.3 mm 10 m/S 761 mmHg 77%
    10:00 +16°C° 0.3 mm 10 m/S 761 mmHg 76%
    11:00 +16°C° 0.3 mm 9 m/S 761 mmHg 74%
    12:00 +16°C° 0.1 mm 9 m/S 761 mmHg 73%
    13:00 +16°C° 0.1 mm 9 m/S 760 mmHg 72%
    14:00 +16°C° 0.1 mm 9 m/S 759 mmHg 71%
    15:00 +16°C° 0.6 mm 9 m/S 759 mmHg 73%
    16:00 +15°C° 0.6 mm 8 m/S 759 mmHg 75%
    17:00 +15°C° 0.6 mm 8 m/S 759 mmHg 77%
    18:00 +13°C° 0.6 mm 8 m/S 759 mmHg 77%
    19:00 +13°C° 0.6 mm 9 m/S 759 mmHg 76%
    20:00 +13°C° 0.6 mm 9 m/S 759 mmHg 76%
    21:00 +12°C° 0.3 mm 10 m/S 759 mmHg 77%
    22:00 +12°C° 0.3 mm 12 m/S 760 mmHg 78%
    23:00 +10°C° 0.3 mm 13 m/S 760 mmHg 78%
    Mehr zeigen